Flag for United Kingdom Weather past 2 weeks in Newport, Wales, United Kingdom

Now
55 °F

Passing clouds.


Feels Like: 52 °F
Forecast: 39 / 60 °F
Wind: 14 mph from South

Location: Bristol / Lulsgate


UV Index: 3 (Moderate)

Visibility: N/A


Pressure: 29.98 "Hg

Humidity: 77%

Dew point: 48 °F

Location of NewportLocation

Historic Weather in Newport

°F

Newport temperature yesterday

Maximum temperature yesterday: 55 °F (at 3:50 PM)
Minimum temperature yesterday: 48 °F (at 3:50 AM)
Average temperature yesterday: 51 °F

Past Weeks' High & Low Weather Summary

 TemperatureHumidityPressure
High63 °F (Apr 21, 2:50 PM)100% (Apr 8, 11:20 PM)30.42 "Hg (Apr 8, 11:20 PM)
Low34 °F (Apr 19, 4:50 AM)39% (Apr 16, 4:50 PM)29.56 "Hg (Apr 20, 4:20 PM)
Average48 °F80%30.09 "Hg
* Reported Apr 8 2:20 PM — Apr 23 2:50 PM, Newport, Weather by CustomWeather, © 2014

Note: Actual official high and low records may vary slightly from our data, if they occured in-between our weather recording intervals... More about our weather records

Advertising

Historic Weather Conditions — Data for Previous 24 hours

 ConditionsComfort  
Time TempWeatherWind HumidityBarometerVisibility
2:50 PM
Apr 23
55 °FPassing clouds.17 mph77%29.98 "HgN/A
2:20 PM54 °FPassing clouds.15 mph88%29.98 "HgN/A
1:50 PM54 °FScattered clouds.15 mph88%29.98 "HgN/A
1:20 PM54 °FScattered clouds.13 mph88%29.98 "HgN/A
12:50 PM52 °FBroken clouds.13 mph94%29.98 "HgN/A
12:20 PM52 °FBroken clouds.14 mph94%29.98 "HgN/A
11:50 AM52 °FScattered showers. Partly sunny.13 mph94%29.98 "HgN/A
11:20 AM52 °FScattered showers. Partly sunny.15 mph94%29.95 "HgN/A
10:50 AM52 °FLight rain. Partly sunny.16 mph88%29.95 "Hg6 mi
10:20 AM52 °FPartly sunny.14 mph88%29.95 "HgN/A
9:50 AM52 °FPartly sunny.13 mph88%29.95 "HgN/A
9:20 AM50 °FPartly sunny.14 mph94%29.95 "HgN/A
8:50 AM50 °FPartly sunny.12 mph94%29.95 "HgN/A
8:20 AM50 °FPartly sunny.13 mph88%29.95 "HgN/A
7:50 AM50 °FPartly sunny.10 mph88%29.95 "HgN/A
7:20 AM50 °FScattered clouds.12 mph88%29.92 "HgN/A
6:50 AM48 °FPassing clouds.12 mph94%29.92 "HgN/A
6:20 AM48 °FPassing clouds.10 mph87%29.92 "HgN/A
5:50 AM48 °FPassing clouds.13 mph87%29.92 "HgN/A
5:20 AM48 °FPassing clouds.13 mph87%29.92 "HgN/A
4:50 AM48 °FPassing clouds.12 mph94%29.92 "HgN/A
4:20 AM48 °FPassing clouds.13 mph94%29.92 "HgN/A
3:50 AM48 °FPassing clouds.13 mph94%29.92 "HgN/A
3:20 AM48 °FPassing clouds.12 mph94%29.92 "HgN/A
2:50 AM48 °FPassing clouds.10 mph94%29.92 "HgN/A
2:20 AM50 °FPassing clouds.9 mph88%29.92 "HgN/A
1:50 AM50 °FPassing clouds.10 mph94%29.92 "HgN/A
1:20 AM48 °FPassing clouds.8 mph94%29.92 "HgN/A
12:50 AM48 °FPassing clouds.7 mph94%29.92 "HgN/A
12:20 AM46 °FPassing clouds.8 mph93%29.92 "HgN/A
11:50 PM
Apr 22
48 °FPassing clouds.7 mph87%29.92 "HgN/A
11:20 PM48 °FPassing clouds.8 mph87%29.89 "HgN/A
10:50 PM50 °FPassing clouds.8 mph88%29.89 "HgN/A
10:20 PM50 °FPassing clouds.6 mph100%29.86 "HgN/A
9:50 PM52 °FPassing clouds.6 mph94%29.86 "HgN/A
9:20 PM52 °FScattered showers. Passing clouds.7 mph94%29.86 "HgN/A
8:50 PM52 °FScattered showers. Partly sunny.8 mph94%29.83 "HgN/A
8:20 PM52 °FSprinkles. Broken clouds.10 mph94%29.83 "HgN/A
7:50 PM52 °FScattered showers. Partly sunny.6 mph94%29.80 "HgN/A
7:20 PM54 °FScattered showers. Scattered clouds.9 mph88%29.80 "HgN/A
6:50 PM54 °FBroken clouds.10 mph88%29.80 "HgN/A
6:20 PM54 °FScattered showers. Scattered clouds.8 mph88%29.77 "HgN/A
5:50 PM54 °FScattered clouds.10 mph82%29.77 "HgN/A
5:20 PM54 °FScattered showers. Broken clouds.12 mph82%29.77 "HgN/A
4:50 PM55 °FScattered showers. Scattered clouds.10 mph77%29.77 "HgN/A
4:20 PM54 °FScattered showers. Scattered clouds.12 mph88%29.77 "HgN/A
Weather by CustomWeather, © 2014

See weather overview